This demonstration page uses our WeatherBlox Daily Observations layout. Learn more.

Left ArrowRight Arrow

39.08367, -84.50855

Hourly Observations for March 4, 2020

Temp ( °F °C ) Dew Point ( °F °C ) Humidity (%) Winds ( mph kmh ) Pressure ( in mb ) Visibility ( mi km ) Precip ( " mm )
12:53 am 00:53 Clear 40 4.4 28 -2.2 63 63 N N/A 29.92 1013 10 16 N/A
1:53 am 01:53 Clear 35 1.7 31 -0.6 85 85 N N/A 29.93 1014 10 16 N/A
2:53 am 02:53 Clear 36 2.2 31 -0.6 82 82 WSW 5 7 29.94 1014 10 16 N/A
3:53 am 03:53 Clear 33 0.6 30 -1.1 89 89 WSW 5 7 29.94 1014 10 16 N/A
4:53 am 04:53 Clear 34 1.1 31 -0.6 89 89 WSW 6 9 29.95 1014 10 16 N/A
5:53 am 05:53 Clear 33 0.6 30 -1.1 89 89 W 3 6 29.95 1014 10 16 N/A
6:53 am 06:53 Clear 33 0.6 30 -1.1 89 89 W 3 6 29.94 1014 10 16 N/A
7:53 am 07:53 Sunny 33 0.6 31 -0.6 92 92 W 3 6 29.93 1014 10 16 N/A
8:53 am 08:53 Sunny 43 6.1 35 1.7 74 74 SSW 6 9 29.92 1013 10 16 N/A
9:53 am 09:53 Mostly Cloudy 50 10 32 undefined 50 50 SSW 7 11 29.92 1013 10 16 N/A
10:53 am 10:53 Mostly Cloudy 56 13.3 29 -1.7 36 36 SW 15 24 29.90 1012 10 16 N/A
11:53 am 11:53 Mostly Cloudy 60 15.6 28 -2.2 30 30 SW 17 28 29.88 1012 10 16 N/A
12:53 pm 12:53 Cloudy 60 15.6 30 -1.1 32 32 SW 16 26 29.87 1011 10 16 N/A
1:53 pm 13:53 Mostly Cloudy 63 17.2 31 -0.6 30 30 W 20 31 29.85 1011 10 16 N/A
2:53 pm 14:53 Partly Cloudy 64 17.8 30 -1.1 28 28 W 20 31 29.86 1011 10 16 N/A
3:53 pm 15:53 Sunny 61 16.1 31 -0.6 32 32 W 15 24 29.93 1014 10 16 N/A
4:53 pm 16:53 Mostly Sunny 59 15 33 0.6 38 38 NNW 9 15 29.96 1015 10 16 N/A
5:53 pm 17:53 Sunny 56 13.3 30 -1.1 37 37 NW 9 15 29.99 1016 10 16 N/A
6:53 pm 18:53 Clear 52 11.1 28 -2.2 40 40 NW 7 11 30.00 1016 10 16 N/A
7:53 pm 19:53 Clear 50 10 27 -2.8 41 41 VRB 5 7 30.06 1018 10 16 N/A
8:53 pm 20:53 Clear 46 7.8 29 -1.7 51 51 N 9 15 30.06 1018 10 16 N/A
9:53 pm 21:53 Clear 47 8.3 29 -1.7 50 50 N 10 17 30.08 1019 10 16 N/A
10:53 pm 22:53 Clear 43 6.1 29 -1.7 58 58 NNE 9 15 30.10 1019 10 16 N/A
11:53 pm 23:53 Clear 42 5.6 28 -2.2 58 58 NNE 5 7 30.13 1020 10 16 N/A

Powered by AerisWeather